sat.trackr.live / text

‹ back to catalog

STARLINK-33781

NORAD 63826 · 2025-092Y

PAYLOAD ACTIVE UNKNOWN

§ Identity

Operator
Country
US
Launch date
2025-05-04
Launch site
AFETR
Launch vehicle
Mass (kg)
RCS (m²)

Purposes: comms

External: N2YO · Heavens-Above · Gunter

§ Orbital elements

Epoch: 2026-05-25T04:59:50.843904Z

Period
94.27 min
Inclination
43.0018°
Eccentricity
0.0001327
Mean motion
15.27598578 rev/d
Perigee alt
482.1 km
Apogee alt
483.9 km
Semi-major
6,861.1 km
B*
7.2425e-4
RAAN
100.7074°
Arg perigee
273.6136°
Mean anomaly
86.4564°
Rev number
6,036

§ Raw data

STARLINK-337811 63826U 25092Y   26145.20822736  .00019732  00000+0  72425-3 0  99952 63826  43.0018 100.7074 0001327 273.6136  86.4564 15.27598578 60368

JSON: /api/v1/satellites/63826 · /tle

For live sub-satellite position, see the globe view (requires WebGL).

§ Visibility from observer

Set your observer location to see the next 7 days of passes ≥ 10°. The values pass through the URL so the page stays shareable.

No JS? Fill the form by hand. The geolocation button needs JavaScript.